Location: Ch�ze
(42.9000°N, 0.0333°W)
Time: 23:40:58
(UTC+00:00)

Aureole 3 Rocket - Pass Details

Date: 24 January 2021
Orbit: 398 x 1740 km, 82.5° (Epoch: 24 February)

Event Time Altitude Azimuth Distance (km) Brightness Sun altitude
Rises 19:26:46 0° 339° (NNW) 2,334 6.3 -26.3°
Reaches altitude 10° 19:28:49 10° 327° (NNW) 1,512 5.4 -26.6°
Maximum altitude 19:31:35 28° 266° (W) 896 4.5 -27.2°
Drops below altitude 10° 19:34:50 10° 206° (SSW) 1,776 5.7 -27.7°
Sets 19:37:26 0° 195° (SSW) 2,844 6.6 -28.2°
